Flag for Canada Weather past 2 weeks in Rankin Inlet, Nunavut, Canada

Now
41 °F

Passing clouds.


Feels Like: 38 °F
Forecast: 33 / 60 °F
Wind: 5 mph from Southeast

Location: Rankin Inlet

Current Time: Jul 4, 2015 at 10:34:31 PM

Latest Report: Jul 4, 2015 at 10:00 PM


Visibility: 15 mi

Pressure: 30.09 "Hg

Humidity: 81%

Dew point: 36 °F

Location of Rankin InletLocation

Historic Weather in Rankin Inlet — Graph

°F

Rankin Inlet temperature yesterday

Maximum temperature yesterday: 54 °F (at 1:00 PM)
Minimum temperature yesterday: 37 °F (at 1:00 AM)
Average temperature yesterday: 46 °F

Past Weeks' High & Low Weather Summary

 TemperatureHumidityPressure
High64 °F (Jul 1, 1:00 PM)100% (Jun 21, 4:00 AM)30.08 "Hg (Jun 21, 4:00 AM)
Low32 °F (Jun 20, 4:00 AM)37% (Jul 1, 3:00 PM)29.38 "Hg (Jun 21, 9:00 AM)
Average46 °F74%29.77 "Hg
* Reported Jun 19 9:00 PM — Jul 4 9:00 PM, Rankin Inlet, Weather by CustomWeather, © 2015

Note: Actual official high and low records may vary slightly from our data, if they occured in-between our weather recording intervals... More about our weather records

Advertising

Rankin Inlet weather history for previous 24 hours

 ConditionsComfort  
Time TempWeatherWind HumidityBarometerVisibility
9:00 PM
Sat, Jul 4
45 °FPassing clouds.6 mph71%30.08 "Hg15 mi
8:00 PM45 °FPassing clouds.8 mph71%30.08 "Hg15 mi
7:00 PM46 °FPassing clouds.7 mph71%30.07 "Hg15 mi
6:00 PM45 °FPassing clouds.12 mph76%30.06 "Hg15 mi
5:00 PM46 °FPassing clouds.12 mph71%30.06 "Hg15 mi
4:00 PM48 °FPassing clouds.12 mph62%30.06 "Hg15 mi
3:00 PM48 °FPassing clouds.13 mph54%30.05 "Hg15 mi
2:00 PM48 °FPassing clouds.14 mph62%30.05 "Hg15 mi
1:00 PM48 °FPassing clouds.13 mph62%30.05 "Hg15 mi
12:00 PM46 °FPassing clouds.7 mph71%30.05 "Hg15 mi
11:00 AM46 °FPassing clouds.10 mph82%30.03 "Hg15 mi
10:00 AM43 °FPassing clouds.9 mph81%30.02 "Hg15 mi
9:00 AM43 °FPassing clouds.3 mph81%30.02 "Hg15 mi
8:00 AM41 °FPassing clouds.7 mph87%30.01 "Hg15 mi
7:00 AM41 °FSunny.6 mph87%30.01 "Hg15 mi
6:00 AM39 °FPassing clouds.5 mph87%30.00 "Hg15 mi
5:00 AM37 °FPassing clouds.5 mph93%29.99 "Hg15 mi
4:00 AM39 °FPassing clouds.5 mph87%29.98 "Hg15 mi
3:00 AM39 °FClear.7 mph87%29.98 "Hg15 mi
2:00 AM37 °FClear.8 mph87%29.98 "Hg15 mi
1:00 AM39 °FClear.9 mph81%29.98 "Hg15 mi
12:00 AM41 °FPassing clouds.9 mph81%29.98 "Hg15 mi
11:00 PM
Fri, Jul 3
43 °FPassing clouds.8 mph71%29.98 "Hg15 mi
10:00 PM43 °FPassing clouds.8 mph76%29.97 "Hg15 mi
Weather by CustomWeather, © 2015

See weather overviewHow to use our weather pages